Regional Weather Roundup
Issued by NWS

Home | Current Version | Previous Version | Text Only | Print | Product List | Glossary On
Versions: 1 2 3 4 5 6 7 8 9 10 11 12 13 14 15 16 17 18 19 20 21 22 23 24 25 26 27 28 29 30 31 32 33 34 35 36 37 38 39 40 41 42 43 44 45 46 47 48 49 50
000
ASUS43 KMPX 251201
RWRMN
WEATHER ROUNDUP FOR MINNESOTA
NATIONAL WEATHER SERVICE TWIN CITIES/CHANHASSEN MN
700 AM CDT SUN JUN 25 2017


NOTE: "FAIR" INDICATES FEW OR NO CLOUDS BELOW 12,000 FEET WITH NO
SIGNIFICANT WEATHER AND/OR OBSTRUCTIONS TO VISIBILITY. N/A MEANS
CURRENT SKY AND/OR WEATHER CONDITIONS ARE NOT AVAILABLE.

MNZ060>063-068>070-251300-
   Twin Cities Metro

CITY           SKY/WX    TMP DP  RH WIND       PRES   REMARKS
TWIN CITIES    CLOUDY    55  47  74 NW13G21   30.11R
6HR MIN TEMP:  54; 6HR MAX TEMP:  57;

ST PAUL        CLOUDY    55  49  80 NW12      30.11R
CRYSTAL        CLOUDY    54  46  74 NW13      30.10R
BLAINE         CLOUDY    55  48  76 NW13      30.10R
LAKEVILLE      CLOUDY    54  48  82 W7        30.12R
EDEN PRAIRIE   CLOUDY    56  48  74 NW9       30.11R
6HR MIN TEMP:  55; 6HR MAX TEMP:  59;

SOUTH ST PAUL  CLOUDY    55  48  76 NW9       30.11R
LAKE ELMO      CLOUDY    54  48  82 NW10G16   30.11R
$$
MNZ001>005-007-008-013>017-022>024-027-028-251300-
   Northwest Minnesota

CITY           SKY/WX    TMP DP  RH WIND       PRES   REMARKS
BEMIDJI        CLOUDY    47  46  95 NW12      30.14S
HALLOCK        SUNNY     45  43  93 NW7       30.21R
ROSEAU         SUNNY     46  41  81 NW6       30.17S
WARROAD        MOSUNNY   46  43  87 NW9       30.16R
CROOKSTON      SUNNY     45  43  93 NW5       30.22R
FOSSTON        SUNNY     46  45  93 NW9       30.19R
DETROIT LAKES  MOSUNNY   46  43  87 NW13      30.20R
MOORHEAD       SUNNY     48  43  81 NW7       30.23R
PARK RAPIDS    PTSUNNY   50  43  77 NW13      30.14R
MAHNOMEN       FAIR      45  43  91 NW8       30.19R
$$
MNZ006-009>011-018-025>026-251300-
   North Central Minnesota

CITY           SKY/WX    TMP DP  RH WIND       PRES   REMARKS
BAUDETTE       CLOUDY    50  48  93 NW5       30.13R
FLAG ISLAND    CLOUDY    52  48  87 W10       30.13R
INTL FALLS     LGT RAIN  50  48  93 NW10      30.08R
6HR MIN TEMP:  50; 6HR MAX TEMP:  54; 6HR PCP:  0.09;

WASKISH        LGT RAIN  48  46  93 N5        30.14R
BIG FORK       RAIN      52  48  87 NW5G18    30.09R
LONGVILLE      LGT RAIN  50  48  93 NW9G16    30.11R
GRAND RAPIDS   RAIN      52  51  97 NW16      30.08S FOG
CRANE LAKE     LGT RAIN  50  48  93 N3        30.06S
ORR            DRIZZLE   52  48  87 NW6       30.03R
COOK           DRIZZLE   52  52 100 NW3       30.05R
WALKER         CLOUDY    48  47  96 NW7       30.13R
$$
MNZ012-019>021-037-251300-
   Northeast Minnesota

CITY           SKY/WX    TMP DP  RH WIND       PRES   REMARKS
DULUTH         CLOUDY    52  51  97 NW7       30.02S
6HR MIN TEMP:  52; 6HR MAX TEMP:  53;

ELY            RAIN      52  52 100 CALM      30.02R
HIBBING        CLOUDY    53  51  93 NW7       30.04R
EVELETH        PTSUNNY   54  48  82 NW6       30.04R
DULUTH HARBOR  CLOUDY    57  54  88 W8        30.02S
TWO HARBORS    CLOUDY    57  52  82 CALM      29.99S
SILVER BAY     DRIZZLE   57  52  82 CALM      29.99R
GRAND MARAIS     N/A     57  52  83 N7        29.97R
G MARAIS ARPRT MOSUNNY   52  46  82 NW3       29.99S
$$
MNZ029>031-032-039>041-046>048-054>057-064-251300-
   West Central Minnesota

CITY           SKY/WX    TMP DP  RH WIND       PRES   REMARKS
FERGUS FALLS   SUNNY     46  43  87 NW10      30.20S
WHEATON        SUNNY     50  43  76 W8          N/A
MORRIS         SUNNY     50  43  76 NW15      30.21R
ALEXANDRIA     MOSUNNY   50  45  83 NW18      30.18R
ELBOW LAKE     FAIR      47  43  86 NW10      30.21S
WADENA         CLOUDY    48  46  93 NW9       30.16R
GLENWOOD       MOSUNNY   48  45  87 NW12      30.18R
BENSON         SUNNY     52  43  71 N14G20    30.22R
ORTONVILLE     SUNNY     52  43  71 W9        30.23S
MADISON        SUNNY     54  45  71 NW12G17   30.24R
WILLMAR        FAIR      52  45  76 NW14G21   30.19S
$$
MNZ033>034-036-042>043-049>051-058-059-251300-
   Central Minnesota

CITY           SKY/WX    TMP DP  RH WIND       PRES   REMARKS
ST CLOUD       CLOUDY    52  50  93 NW14G20   30.12R
6HR MIN TEMP:  51; 6HR MAX TEMP:  54; 6HR PCP: TRACE;

SAUK CENTRE    CLOUDY    52  46  82 NW14      30.16R
PAYNESVILLE    CLOUDY    52  46  78 NW10G18   30.16R
AITKIN         DRIZZLE   52  50  93 W7        30.07R
PINE RIVER     DRIZZLE   52  50  93 NW9G16    30.15R
BRAINERD       LGT RAIN  51  49  92 NW14      30.11R FOG
STAPLES        CLOUDY    50  46  87 NW13G20   30.14R
LONG PRAIRIE   CLOUDY    50  45  81 W13G26    30.16R
LITTLE FALLS   CLOUDY    52  46  82 NW9       30.13R
LITCHFIELD     CLOUDY    54  48  82 NW14G23   30.15R
BUFFALO        CLOUDY    53  48  82 W9        30.14R HAZE
MAPLE LAKE     RAIN      53  51  91 W9        30.14R
HUTCHINSON     CLOUDY    53  47  82 W9G17     30.16S
$$
MNZ037-044-045-052-053-251300-
   East Central Minnesota

CITY           SKY/WX    TMP DP  RH WIND       PRES   REMARKS
PRINCETON      CLOUDY    55  50  82 W7        30.11R
MORA           CLOUDY    50  46  87 W7        30.09R
CAMBRIDGE      CLOUDY    55  46  71 W7        30.08R
RUSH CITY      CLOUDY    52  50  93 W7        30.08R
MOOSE LAKE     LGT RAIN  54  50  87 W3        30.04R
HINCKLEY       CLOUDY    54  52  94 W7        30.07R
CLOQUET        CLOUDY    54  50  87 W5        30.04R
MCGREGOR       CLOUDY    54  52  94 NW8       30.06R
$$
MNZ071>073-080-081-089-090-097-098-251300-
   Southwest Minnesota

CITY           SKY/WX    TMP DP  RH WIND       PRES   REMARKS
MONTEVIDEO     SUNNY     54  45  71 N14G21    30.21S
GRANITE FALLS  SUNNY     52  44  74 W13       30.23R
CANBY          SUNNY     52  43  71 CALM      30.26R
MARSHALL       SUNNY     51  41  68 NW14      30.23R
REDWOOD FALLS  SUNNY     51  43  74 W13       30.19R
OLIVIA         SUNNY     50  43  76 NW15      30.18R
PIPESTONE      MOSUNNY   50  45  81 NW7       30.26R
WINDOM         SUNNY     52  43  71 W15       30.22R
WORTHINGTON    SUNNY     50  43  77 W14       30.25R
JACKSON        SUNNY     50  41  71 NW15      30.23R
TRACY          SUNNY     51  42  71 NW13      30.24R
SLAYTON        SUNNY     48  41  75 W13       30.25R
$$
MNZ065>067-074>077-082>085-091>093-251300-
   South Central Minnesota

CITY           SKY/WX    TMP DP  RH WIND       PRES   REMARKS
MANKATO        CLOUDY    52  46  80 NW14G20   30.17R
NEW ULM        PTSUNNY   52  43  71 NW15G25   30.18R
ST JAMES       MOSUNNY   52  45  76 W14G21    30.21R
FAIRMONT       CLOUDY    52  44  74 NW18G29   30.21R
GLENCOE        CLOUDY    54  50  87 W12G20    30.15R
FARIBAULT      CLOUDY    54  48  82 W8        30.14R
OWATONNA       CLOUDY    54  46  76 W15       30.14R
WASECA         CLOUDY    52  45  76 NW17G24   30.17R
ALBERT LEA     CLOUDY    54  46  76 NW7       30.16R
$$
MNZ078>079-086>088-094>096-251300-
   Southeast Minnesota

CITY           SKY/WX    TMP DP  RH WIND       PRES   REMARKS
ROCHESTER      CLOUDY    51  48  89 W12       30.12R
6HR MIN TEMP:  48; 6HR MAX TEMP:  51;

RED WING       CLOUDY    55  46  71 NW8       30.09R
STANTON        CLOUDY    55  48  79 W13       30.11R
DODGE CENTER   CLOUDY    52  46  82 W12       30.13R
WINONA         CLOUDY    54  48  82 NW7       30.10R
AUSTIN         CLOUDY    52  46  82 W9        30.14R
PRESTON        PTSUNNY   51  47  86 W10       30.13R
$$
ABBREVIATIONS USED IN REMARKS
   TC - TEMPERATURES IN CELSIUS
  WCI - WIND CHILL INDEX
   HX - HEAT INDEX
  VSB - VISIBILITY
$$



USA.gov is the U.S. government's official web portal to all federal, state and local government web resources and services.